Voltar ao catálogo

OBJECT C

AtivoVLEO
NORAD 100082·UNKNOWN·🇮🇳 India

Lançado Jul 18, 2026 de Satish Dhawan Space Centre

Loading…

Próximas Passagens (próximas 24 horas)

TLE

AtualizadoSource: Space-Track

Época: Sep 14, 2026, 12:12 UTC

1 A0082U 26164C   26257.50898836  .00021763  00000-0  50529-3 0  9991
2 A0082  59.9316  75.6185 0016556  12.6842 347.4659 15.42266303  8966

Acompanhe OBJECT C em tempo real com AllMySat

Download on the App Store